Location: Newark
(43.6583°N, 1.6617°E)
Time: 11:53:12
(UTC+00:00)

Vanguard 2 Rocket - Pass Details

Date: 24 August 2019
Orbit: 554 x 3326 km, 32.9° (Epoch: 21 September)

Event Time Altitude Azimuth Distance (km) Brightness Sun altitude
Exits shadow 04:12:33 11° 248° (WSW) 4,506 9.7 -10.1°
Maximum altitude 04:25:47 58° 174° (S) 3,225 9.6 -7.9°
Drops below altitude 10° 04:45:08 10° 103° (ESE) 6,286 12.2 -4.7°
Sets 04:50:06 0° 100° (E) 7,264 12.7 -3.8°
